Hourly Data Report for June 11, 2018

TORONTO CITY
ONTARIO
Current Station Operator: ECCC - MSC

43°40'00.000" N
79°24'00.000" W
112.50 m
6158355
71508
XTO

Download Data

Hourly Data (June 2018)
Hourly Data Report for June 11, 2018
TIME
LST
Temp Definition
°C
Dew Point Definition
°C
Rel Hum Definition
%
Precip. Amount Definition
mm

Wind Dir Definition
10's deg

Wind Spd Definition
km/h
Visibility Definition
km
Stn Press Definition
kPa
Hmdx Definition


Wind Chill Definition


Weather Definition


00:00 16.0 4.1 45 0.0 LegendMM LegendMM   100.34     LegendNANA
01:00 15.1 4.4 49 0.0 LegendMM LegendMM   100.34     LegendNANA
02:00 14.8 4.8 51 0.0 LegendMM LegendMM   100.35     LegendNANA
03:00 14.3 4.6 52 0.0 LegendMM LegendMM   100.34     LegendNANA
04:00 13.7 4.1 52 0.0 LegendMM LegendMM   100.37     LegendNANA
05:00 14.2 3.3 48 0.0 LegendMM LegendMM   100.39     LegendNANA
06:00 15.0 3.1 45 0.0 LegendMM LegendMM   100.45     LegendNANA
07:00 17.0 2.5 38 0.0 LegendMM LegendMM   100.50     LegendNANA
08:00 19.8 1.5 29 0.0 LegendMM LegendMM   100.56     LegendNANA
09:00 20.2 -0.1 26 0.0 LegendMM LegendMM   100.61     LegendNANA
10:00 20.5 0.3 26 0.0 LegendMM LegendMM   100.62     LegendNANA
11:00 21.0 0.1 25 0.0 LegendMM LegendMM   100.62     LegendNANA
12:00 20.8 -0.1 25 0.0 LegendMM LegendMM   100.60     LegendNANA
13:00 20.4 0.4 26 0.0 LegendMM LegendMM   100.57     LegendNANA
14:00 21.5 3.1 30 0.0 LegendMM LegendMM   100.53     LegendNANA
15:00 20.4 2.6 31 0.0 LegendMM LegendMM   100.51     LegendNANA
16:00 20.5 2.1 30 0.0 LegendMM LegendMM   100.52     LegendNANA
17:00 20.0 1.2 29 0.0 LegendMM LegendMM   100.49     LegendNANA
18:00 19.7 -0.1 27 0.0 LegendMM LegendMM   100.48     LegendNANA
19:00 19.8 -0.1 26 0.0 LegendMM LegendMM   100.48     LegendNANA
20:00 18.9 0.2 28 0.0 LegendMM LegendMM   100.50     LegendNANA
21:00 18.5 0.0 29 0.0 LegendMM LegendMM   100.57     LegendNANA
22:00 17.9 0.3 30 0.0 LegendMM LegendMM   100.58     LegendNANA
23:00 17.0 -1.0 29 0.0 LegendMM LegendMM   100.55     LegendNANA

Notes on Data Quality.

Legend

  • E = Estimated
  • M = Missing
  • NA = Not Available*
  • [empty] = Indicates an unobserved value
Date modified: